OneWeb SL0325

operational
NORAD ID: 49194 Int'l Des: 2021-083 Owner: ONEWEBN Country: UK Constellation: oneweb
LEOCIRCULARPOLARONEWEB_TYPE

关于 OneWeb SL0325

正在加载描述...

实时位置

正在加载3D地球...

即将过境

高度历史

Altitude vs Time

uPlot chart will show altitude changes over time

两行轨道根数

1 49194U 21083J 25353.76703272 .00000082 00000-0 17542-3 0 9995
2 49194 87.9176 11.0988 0001821 91.1519 268.9822 13.18687403206367
Epoch: Dec 19, 2025 • Age: 7 hours

当前状态

高度 1200.0 km
速度 7.25 km/s
星下点 -26.00°S, 102.3°W
发射日期 Sep 14, 2021
运行时间 4.2 years
类型 internet

技术详情

分类 Payload
质量 148.00 kg
干质量 140.00 kg
总质量 148.00 kg
长度 1.30 m
直径 1.00 m
跨度 5.00 m
形状 Trapezoid+2 pan
制造商 ONEWUS
平台类型 ARROW
阶段状态 In Orbit
所有者/国家 ONEWEBN/UK

大型星座

Loading constellations...